Tracking 33165 objects as of 7-Feb-2026
HD Live streaming from Space Station
objects crossing your sky now

CENTISPACE-1 S6

Track CENTISPACE-1 S6 now!
10-day predictions


NORAD ID: 54021
Int'l Code: 2022-126B
Perigee: 682.3 km
Apogee: 705.0 km
Inclination: 55.0 °
Period: 98.5 minutes
Semi major axis: 7064 km
RCS: Unknown
Launch date: October 7, 2022
Source: People's Republic of China (PRC)
Launch site: Yellow Sea Launch Area, China (YSLA)
Your satellite tracking list
Your tracking list is empty




NASA's NSSDC Master Catalog

Two Line Element Set (TLE):
1 54021U 22126B   26038.46324688  .00001128  00000-0  25992-3 0  9997
2 54021  55.0004  13.2522 0016093 130.9867 229.2522 14.62065530178020
Source of the keplerian elements: AFSPC